全球星 M086星 (GLOBALSTAR M086)

导读 | 星芒AI

GLOBALSTAR M086 是 Globalstar 卫星通信公司运营的一颗低轨移动通信卫星,属于第二代 Globalstar 卫星星座的一部分。该卫星运行在约 1414 公里的近地轨道,主要用于提供语音和数据通信服务,覆盖全球大部分地区。M086 采用 L 波段进行通信,支持手持终端和移动设备的连接,广泛应用于偏远地区、海上和航空通信。其设计寿命约为 15 年,旨在提升全球卫星通信的可靠性和覆盖范围。

基本信息
目录编号:
38045
目录名称:
GLOBALSTAR M086
国际标识:
2011-080F
轨道中心:
EARTH
卫星名称:
全球星 M086星
卫星全名:
全球星 M086星 (GLOBALSTAR M086)
卫星状态:
在轨 (已飞行5101 天)
发射日期:
2011-12-28 UTC
国别 :
(GLOB)
星等 :
--
轨道信息
数据来源 国际轨道数据 AOE轨道数据
星历时间 2025-12-15T03:35:41+0800
22小时前
查看轨道信息
2025-12-15T12:00:00+0800
14小时前
查看轨道信息
半长轴 7791.681km 7791.687km
偏心率 0.0001414 0.0001271
轨道倾角 51.987° 51.986°
近地点辐角 41.281° 30.658°
升交点赤经 169.836° 168.770°
平近点角 62.160° 225.013°
近地点 1412.444km 1412.561km
远地点 1414.648km 1414.543km
周期 114.079分钟 114.079分钟
每日圈数 12.622811 12.622795
详细信息
固有亮度:
5
最大亮度:
7.2
平衡模式:
三轴稳定
覆盖范围:
全球
运营商:
全球星公司
运营商所在国:
美国
使用方式:
暂无
卫星简介
全球星星座由48颗卫星加8颗备份星组成。这些卫星分布在8个倾角为52度的圆形轨道平面上,每个轨道平面6颗卫星,另有1 颗备用星。轨道高度约为1414km,传输时延和处理时延小于300ms,整个系统的覆盖区为南北纬70度以内的地区。该卫星已退役。
2D轨道图
3D轨道图
轨道高度分析图
轨道倾角分析图
轨道综合分析图
查看轨道综合分析图